| time (UTC) | temp F | wind direction | speed MPH | gust MPH | rain 1hr in | rain 24hr in | rain mn in | humidity % | barometer mb |
| 20260506073034 | 48 | 0 | 0.0 | 0.0 | 0.00 | 0.02 | 0.00 | 95 | 1018.0 |
| 20260506071535 | 48 | 0 | 0.0 | 0.0 | 0.00 | 0.02 | 0.00 | 95 | 1018.0 |
| 20260506061530 | 47 | 0 | 0.0 | 1.0 | 0.00 | 0.02 | 0.02 | 95 | 1017.5 |
| 20260506044538 | 48 | 132 | 0.0 | 3.0 | 0.00 | 0.02 | 0.02 | 95 | 1016.8 |
| 20260506043038 | 48 | 133 | 0.0 | 2.0 | 0.00 | 0.02 | 0.02 | 95 | 1016.7 |
| 20260506041533 | 48 | 133 | 0.0 | 2.0 | 0.00 | 0.02 | 0.02 | 95 | 1016.6 |
| 20260506040036 | 48 | 0 | 0.0 | 2.0 | 0.00 | 0.02 | 0.02 | 95 | 1016.4 |
| 20260506034533 | 48 | 133 | 1.0 | 3.0 | 0.00 | 0.02 | 0.02 | 95 | 1016.3 |
| 20260506033036 | 47 | 133 | 0.0 | 2.0 | 0.00 | 0.02 | 0.02 | 95 | 1016.1 |
| 20260506031540 | 47 | 134 | 0.0 | 2.0 | 0.00 | 0.02 | 0.02 | 95 | 1015.8 |
| 20260506030032 | 47 | 0 | 0.0 | 3.0 | 0.00 | 0.02 | 0.02 | 95 | 1015.8 |
| 20260506024537 | 47 | 133 | 0.0 | 1.0 | 0.00 | 0.02 | 0.02 | 95 | 1015.7 |
| 20260506023050 | 47 | 133 | 0.0 | 3.0 | 0.00 | 0.02 | 0.02 | 95 | 1015.5 |
| 20260506021552 | 48 | 0 | 0.0 | 3.0 | 0.00 | 0.02 | 0.02 | 95 | 1015.5 |
| 20260506020035 | 48 | 182 | 1.0 | 3.0 | 0.00 | 0.02 | 0.02 | 95 | 1015.3 |
| 20260506014534 | 48 | 0 | 0.0 | 2.0 | 0.00 | 0.02 | 0.02 | 94 | 1015.4 |
| 20260506013035 | 48 | 0 | 0.0 | 1.0 | 0.00 | 0.02 | 0.02 | 94 | 1015.5 |
| 20260506011531 | 48 | 182 | 0.0 | 2.0 | 0.00 | 0.02 | 0.02 | 94 | 1015.3 |
| 20260506010032 | 48 | 182 | 0.0 | 4.0 | 0.00 | 0.02 | 0.02 | 94 | 1015.1 |
| 20260506004534 | 48 | 182 | 1.0 | 2.0 | 0.00 | 0.02 | 0.02 | 94 | 1014.9 |
| 20260506003035 | 48 | 0 | 0.0 | 2.0 | 0.00 | 0.02 | 0.02 | 94 | 1014.9 |
| 20260506001536 | 48 | 0 | 0.0 | 1.0 | 0.00 | 0.02 | 0.02 | 94 | 1014.7 |
| 20260506000032 | 48 | 182 | 0.0 | 1.0 | 0.00 | 0.02 | 0.02 | 94 | 1014.7 |
| 20260505234532 | 48 | 0 | 0.0 | 1.0 | 0.01 | 0.02 | 0.02 | 94 | 1014.6 |
| 20260505233035 | 48 | 0 | 0.0 | 1.0 | 0.01 | 0.02 | 0.02 | 94 | 1014.6 |
| 20260505231546 | 48 | 0 | 0.0 | 1.0 | 0.01 | 0.02 | 0.02 | 94 | 1014.6 |
| 20260505230035 | 47 | 0 | 0.0 | 1.0 | 0.01 | 0.02 | 0.02 | 94 | 1014.7 |
| 20260505224535 | 47 | 0 | 0.0 | 1.0 | 0.00 | 0.01 | 0.01 | 94 | 1014.6 |
| 20260505223034 | 47 | 0 | 0.0 | 3.0 | 0.00 | 0.01 | 0.01 | 94 | 1014.7 |
| 20260505221534 | 48 | 0 | 0.0 | 2.0 | 0.00 | 0.01 | 0.01 | 94 | 1014.7 |
| 20260505220034 | 48 | 0 | 0.0 | 2.0 | 0.00 | 0.01 | 0.01 | 94 | 1014.7 |
| 20260505214548 | 48 | 0 | 0.0 | 2.0 | 0.00 | 0.01 | 0.01 | 94 | 1014.7 |
| 20260505213039 | 48 | 179 | 0.0 | 2.0 | 0.00 | 0.01 | 0.01 | 94 | 1014.7 |
| 20260505211535 | 47 | 0 | 0.0 | 2.0 | 0.00 | 0.01 | 0.01 | 94 | 1014.8 |
| 20260505210031 | 48 | 0 | 0.0 | 2.0 | 0.00 | 0.01 | 0.01 | 93 | 1014.7 |
| 20260505204531 | 48 | 0 | 0.0 | 2.0 | 0.00 | 0.01 | 0.01 | 93 | 1014.6 |
| 20260505203050 | 47 | 0 | 0.0 | 1.0 | 0.00 | 0.01 | 0.01 | 93 | 1014.6 |
| 20260505201540 | 47 | 0 | 0.0 | 2.0 | 0.00 | 0.01 | 0.01 | 93 | 1014.5 |
| 20260505200038 | 47 | 0 | 0.0 | 7.0 | 0.00 | 0.01 | 0.01 | 93 | 1014.6 |
| 20260505194533 | 47 | 208 | 0.0 | 3.0 | 0.00 | 0.01 | 0.01 | 93 | 1014.6 |
| 20260505193033 | 47 | 151 | 0.0 | 2.0 | 0.00 | 0.01 | 0.01 | 93 | 1014.5 |
| 20260505191533 | 47 | 0 | 0.0 | 2.0 | 0.00 | 0.01 | 0.01 | 94 | 1014.5 |
| 20260505190034 | 47 | 151 | 1.0 | 3.0 | 0.00 | 0.01 | 0.01 | 94 | 1014.4 |
| 20260505184536 | 47 | 0 | 0.0 | 3.0 | 0.00 | 0.01 | 0.01 | 94 | 1014.4 |
| 20260505183033 | 47 | 0 | 0.0 | 3.0 | 0.00 | 0.01 | 0.01 | 94 | 1014.4 |
| 20260505181540 | 46 | 0 | 0.0 | 2.0 | 0.00 | 0.01 | 0.01 | 94 | 1014.3 |
| 20260505180033 | 47 | 0 | 0.0 | 3.0 | 0.00 | 0.01 | 0.01 | 94 | 1014.2 |
| 20260505174540 | 47 | 0 | 1.0 | 3.0 | 0.00 | 0.01 | 0.01 | 94 | 1014.0 |
| 20260505173034 | 47 | 178 | 0.0 | 2.0 | 0.00 | 0.01 | 0.01 | 94 | 1013.9 |
| 20260505171535 | 46 | 178 | 0.0 | 2.0 | 0.00 | 0.01 | 0.01 | 94 | 1013.9 |
| 20260505170036 | 46 | 0 | 0.0 | 1.0 | 0.00 | 0.01 | 0.01 | 94 | 1013.8 |
| 20260505164533 | 45 | 178 | 0.0 | 2.0 | 0.00 | 0.01 | 0.01 | 94 | 1013.8 |
| 20260505163053 | 45 | 0 | 0.0 | 4.0 | 0.00 | 0.01 | 0.01 | 94 | 1013.7 |
| 20260505161533 | 45 | 155 | 1.0 | 3.0 | 0.00 | 0.01 | 0.01 | 95 | 1013.8 |
| 20260505153035 | 45 | 168 | 2.0 | 5.0 | 0.00 | 0.01 | 0.01 | 95 | 1013.6 |
| 20260505151545 | 44 | 136 | 1.0 | 5.0 | 0.00 | 0.01 | 0.01 | 95 | 1013.5 |
| 20260505124532 | 42 | 0 | 0.0 | 0.0 | 0.01 | 0.01 | 0.01 | 95 | 1012.9 |
| 20260505123033 | 41 | 0 | 0.0 | 0.0 | 0.00 | 0.00 | 0.00 | 95 | 1013.0 |
| 20260505121531 | 41 | 0 | 0.0 | 0.0 | 0.00 | 0.00 | 0.00 | 95 | 1012.8 |
| 20260505120039 | 41 | 0 | 0.0 | 0.0 | 0.00 | 0.00 | 0.00 | 94 | 1012.9 |
| 20260505114538 | 41 | 0 | 0.0 | 0.0 | 0.00 | 0.00 | 0.00 | 95 | 1013.0 |
| 20260505113034 | 42 | 0 | 0.0 | 0.0 | 0.00 | 0.00 | 0.00 | 94 | 1012.9 |
| 20260505111532 | 42 | 0 | 0.0 | 0.0 | 0.00 | 0.00 | 0.00 | 95 | 1013.0 |
| 20260505101535 | 43 | 0 | 0.0 | 2.0 | 0.00 | 0.00 | 0.00 | 95 | 1013.1 |
| 20260505100034 | 43 | 92 | 0.0 | 1.0 | 0.00 | 0.00 | 0.00 | 95 | 1013.4 |
| 20260505094530 | 43 | 92 | 0.0 | 1.0 | 0.00 | 0.01 | 0.00 | 95 | 1013.2 |
| 20260505093040 | 43 | 0 | 0.0 | 2.0 | 0.00 | 0.01 | 0.00 | 95 | 1013.7 |
| 20260505091532 | 42 | 0 | 0.0 | 1.0 | 0.00 | 0.01 | 0.00 | 95 | 1013.6 |
| 20260505090039 | 42 | 0 | 0.0 | 1.0 | 0.00 | 0.01 | 0.00 | 94 | 1013.7 |
| 20260505084532 | 42 | 0 | 0.0 | 1.0 | 0.00 | 0.01 | 0.00 | 94 | 1013.8 |
| 20260505083033 | 42 | 0 | 0.0 | 1.0 | 0.00 | 0.01 | 0.00 | 94 | 1013.7 |
| 20260505081532 | 42 | 0 | 0.0 | 1.0 | 0.00 | 0.01 | 0.00 | 94 | 1013.9 |